When you browse on this site, cookies collect data to enhance your experience and personalize the content and advertising you see.
Visit our Privacy Policy to learn more. By continuing to use the site, you agree to this use of cookies and data.

Meteo pe oră la Bagdad

Astăzi, 20 Septembrie, Duminică

Timp Temperatura Precipitaţii Vânt Presiune Umiditate
00:00 +33°C° 0 mm 3 m/s 750 mmHg 22%
01:00 +33°C° 0 mm 3 m/s 750 mmHg 24%
02:00 +32°C° 0 mm 4 m/s 750 mmHg 26%
03:00 +32°C° 0 mm 4 m/s 750 mmHg 30%
04:00 +30°C° 0 mm 4 m/s 750 mmHg 29%
05:00 +29°C° 0 mm 4 m/s 751 mmHg 29%
06:00 +29°C° 0 mm 4 m/s 751 mmHg 29%
07:00 +32°C° 0 mm 4 m/s 751 mmHg 26%
08:00 +35°C° 0 mm 4 m/s 751 mmHg 23%
09:00 +38°C° 0 mm 4 m/s 751 mmHg 19%
10:00 +40°C° 0 mm 5 m/s 751 mmHg 17%
11:00 +42°C° 0 mm 5 m/s 751 mmHg 14%
12:00 +45°C° 0 mm 6 m/s 751 mmHg 12%
13:00 +46°C° 0 mm 6 m/s 751 mmHg 11%
14:00 +46°C° 0 mm 7 m/s 750 mmHg 10%
15:00 +46°C° 0 mm 7 m/s 750 mmHg 10%
16:00 +44°C° 0 mm 6 m/s 750 mmHg 11%
17:00 +42°C° 0 mm 6 m/s 750 mmHg 11%
18:00 +40°C° 0 mm 5 m/s 750 mmHg 12%
19:00 +39°C° 0 mm 5 m/s 750 mmHg 13%
20:00 +37°C° 0 mm 5 m/s 751 mmHg 13%
21:00 +36°C° 0 mm 5 m/s 751 mmHg 13%
22:00 +36°C° 0 mm 4 m/s 751 mmHg 14%
23:00 +35°C° 0 mm 4 m/s 751 mmHg 15%

Mâine, 21 Septembrie, Luni

Timp Temperatura Precipitaţii Vânt Presiune Umiditate
00:00 +34°C° 0 mm 4 m/s 750 mmHg 17%
01:00 +34°C° 0 mm 4 m/s 750 mmHg 17%
02:00 +33°C° 0 mm 4 m/s 750 mmHg 17%
03:00 +32°C° 0 mm 4 m/s 750 mmHg 17%
04:00 +32°C° 0 mm 4 m/s 750 mmHg 17%
05:00 +30°C° 0 mm 4 m/s 751 mmHg 17%
06:00 +30°C° 0 mm 4 m/s 751 mmHg 16%
07:00 +34°C° 0 mm 4 m/s 751 mmHg 14%
08:00 +37°C° 0 mm 4 m/s 752 mmHg 11%
09:00 +40°C° 0 mm 4 m/s 752 mmHg 9%
10:00 +42°C° 0 mm 4 m/s 752 mmHg 9%
11:00 +45°C° 0 mm 5 m/s 752 mmHg 8%
12:00 +47°C° 0 mm 5 m/s 752 mmHg 8%
13:00 +48°C° 0 mm 5 m/s 751 mmHg 8%
14:00 +48°C° 0 mm 5 m/s 751 mmHg 7%
15:00 +49°C° 0 mm 5 m/s 750 mmHg 7%
16:00 +47°C° 0 mm 5 m/s 750 mmHg 8%
17:00 +44°C° 0 mm 4 m/s 750 mmHg 9%
18:00 +42°C° 0 mm 4 m/s 750 mmHg 10%
19:00 +40°C° 0 mm 4 m/s 750 mmHg 11%
20:00 +38°C° 0 mm 4 m/s 750 mmHg 12%
21:00 +37°C° 0 mm 3 m/s 751 mmHg 13%
22:00 +36°C° 0 mm 3 m/s 751 mmHg 14%
23:00 +36°C° 0 mm 3 m/s 750 mmHg 14%

Poimâine, 22 Septembrie, Marţi

Timp Temperatura Precipitaţii Vânt Presiune Umiditate
00:00 +35°C° 0 mm 4 m/s 750 mmHg 14%
01:00 +35°C° 0 mm 3 m/s 750 mmHg 14%
02:00 +34°C° 0 mm 3 m/s 750 mmHg 15%
03:00 +34°C° 0 mm 3 m/s 750 mmHg 15%
04:00 +33°C° 0 mm 3 m/s 750 mmHg 16%
05:00 +33°C° 0 mm 3 m/s 750 mmHg 16%
06:00 +33°C° 0 mm 3 m/s 751 mmHg 16%
07:00 +36°C° 0 mm 3 m/s 751 mmHg 14%
08:00 +38°C° 0 mm 4 m/s 751 mmHg 12%
09:00 +42°C° 0 mm 4 m/s 752 mmHg 10%
10:00 +44°C° 0 mm 4 m/s 752 mmHg 9%
11:00 +47°C° 0 mm 5 m/s 751 mmHg 8%
12:00 +48°C° 0 mm 5 m/s 751 mmHg 7%
13:00 +49°C° 0 mm 5 m/s 751 mmHg 7%
14:00 +49°C° 0 mm 5 m/s 750 mmHg 7%
15:00 +49°C° 0 mm 5 m/s 750 mmHg 7%
16:00 +47°C° 0 mm 5 m/s 750 mmHg 8%
17:00 +45°C° 0 mm 5 m/s 750 mmHg 9%
18:00 +42°C° 0 mm 5 m/s 750 mmHg 10%
19:00 +41°C° 0 mm 5 m/s 751 mmHg 11%
20:00 +40°C° 0 mm 5 m/s 751 mmHg 12%
21:00 +37°C° 0 mm 5 m/s 751 mmHg 13%
22:00 +37°C° 0 mm 5 m/s 751 mmHg 15%
23:00 +36°C° 0 mm 5 m/s 751 mmHg 17%

23 Septembrie, Miercuri

Timp Temperatura Precipitaţii Vânt Presiune Umiditate
00:00 +35°C° 0 mm 6 m/s 751 mmHg 19%
01:00 +34°C° 0 mm 6 m/s 751 mmHg 19%
02:00 +34°C° 0 mm 6 m/s 750 mmHg 20%
03:00 +33°C° 0 mm 6 m/s 750 mmHg 21%
04:00 +33°C° 0 mm 5 m/s 751 mmHg 21%
05:00 +32°C° 0 mm 5 m/s 751 mmHg 22%
06:00 +32°C° 0 mm 5 m/s 751 mmHg 22%
07:00 +35°C° 0 mm 5 m/s 752 mmHg 19%
08:00 +38°C° 0 mm 6 m/s 752 mmHg 16%
09:00 +41°C° 0 mm 6 m/s 752 mmHg 13%
10:00 +44°C° 0 mm 6 m/s 752 mmHg 12%
11:00 +46°C° 0 mm 6 m/s 752 mmHg 10%
12:00 +48°C° 0 mm 6 m/s 752 mmHg 9%
13:00 +48°C° 0 mm 6 m/s 751 mmHg 9%
14:00 +48°C° 0 mm 5 m/s 750 mmHg 9%
15:00 +49°C° 0 mm 5 m/s 750 mmHg 8%
16:00 +47°C° 0 mm 5 m/s 750 mmHg 10%
17:00 +45°C° 0 mm 6 m/s 750 mmHg 12%
18:00 +42°C° 0 mm 6 m/s 750 mmHg 13%
19:00 +40°C° 0 mm 6 m/s 750 mmHg 15%
20:00 +39°C° 0 mm 6 m/s 751 mmHg 16%
21:00 +38°C° 0 mm 6 m/s 751 mmHg 18%
22:00 +36°C° 0 mm 5 m/s 751 mmHg 19%
23:00 +36°C° 0 mm 5 m/s 751 mmHg 21%

24 Septembrie, Joi

Timp Temperatura Precipitaţii Vânt Presiune Umiditate
00:00 +35°C° 0 mm 5 m/s 750 mmHg 23%
01:00 +34°C° 0 mm 5 m/s 750 mmHg 23%
02:00 +33°C° 0 mm 4 m/s 750 mmHg 24%
03:00 +32°C° 0 mm 4 m/s 750 mmHg 24%
04:00 +32°C° 0 mm 4 m/s 750 mmHg 24%
05:00 +32°C° 0 mm 4 m/s 751 mmHg 24%
06:00 +32°C° 0 mm 4 m/s 751 mmHg 24%
07:00 +35°C° 0 mm 4 m/s 751 mmHg 22%
08:00 +37°C° 0 mm 4 m/s 752 mmHg 19%
09:00 +40°C° 0 mm 3 m/s 752 mmHg 16%
10:00 +42°C° 0 mm 4 m/s 752 mmHg 14%
11:00 +43°C° 0 mm 4 m/s 752 mmHg 13%
12:00 +45°C° 0 mm 4 m/s 752 mmHg 12%
13:00 +45°C° 0 mm 4 m/s 751 mmHg 11%
14:00 +47°C° 0 mm 5 m/s 751 mmHg 11%
15:00 +47°C° 0 mm 5 m/s 750 mmHg 11%
16:00 +45°C° 0 mm 5 m/s 750 mmHg 12%
17:00 +42°C° 0 mm 5 m/s 750 mmHg 13%
18:00 +40°C° 0 mm 5 m/s 750 mmHg 15%
19:00 +40°C° 0 mm 4 m/s 750 mmHg 16%
20:00 +38°C° 0 mm 4 m/s 751 mmHg 17%
21:00 +37°C° 0 mm 3 m/s 751 mmHg 18%
22:00 +36°C° 0 mm 3 m/s 751 mmHg 19%
23:00 +35°C° 0 mm 4 m/s 750 mmHg 20%

25 Septembrie, Vineri

Timp Temperatura Precipitaţii Vânt Presiune Umiditate
00:00 +35°C° 0 mm 4 m/s 750 mmHg 21%
01:00 +34°C° 0 mm 4 m/s 750 mmHg 22%
02:00 +33°C° 0 mm 3 m/s 750 mmHg 23%
03:00 +33°C° 0 mm 3 m/s 750 mmHg 24%
04:00 +31°C° 0 mm 3 m/s 750 mmHg 24%
05:00 +31°C° 0 mm 2 m/s 750 mmHg 24%
06:00 +30°C° 0 mm 2 m/s 750 mmHg 23%
07:00 +33°C° 0 mm 1 m/s 750 mmHg 20%
08:00 +36°C° 0 mm 1 m/s 750 mmHg 17%
09:00 +36°C° 0 mm 0 m/s 751 mmHg 14%
10:00 +41°C° 0 mm 1 m/s 750 mmHg 13%
11:00 +42°C° 0 mm 1 m/s 750 mmHg 12%
12:00 +45°C° 0 mm 2 m/s 749 mmHg 11%
13:00 +46°C° 0 mm 2 m/s 749 mmHg 10%
14:00 +47°C° 0 mm 3 m/s 748 mmHg 9%
15:00 +48°C° 0 mm 4 m/s 748 mmHg 9%
16:00 +45°C° 0 mm 3 m/s 747 mmHg 10%
17:00 +43°C° 0 mm 3 m/s 747 mmHg 11%
18:00 +40°C° 0 mm 2 m/s 746 mmHg 12%
19:00 +39°C° 0 mm 2 m/s 747 mmHg 13%
20:00 +38°C° 0 mm 3 m/s 747 mmHg 14%
21:00 +37°C° 0 mm 3 m/s 747 mmHg 15%
22:00 +36°C° 0 mm 4 m/s 747 mmHg 19%
23:00 +35°C° 0 mm 4 m/s 747 mmHg 24%
Arată mai mult